Probability
6 6 23 55 58 32 6 0 3 3 0 0 3 6 0 3 0 3 10 26 32 26 32 65 84 77 77 81 77 77 74 68 65 58 58 65 58 48 48 52 65 71 71 71 71 71 77 74 74
13 23 42 61 39 10 0 3 3 3 0 0 0 0 0 0 0 0 13 29 26 23 35 35 81 81 81 81 77 81 74 74 65 58 52 55 61 55 58 58 65 65 68 68 71 71 71 68 65
23 39 58 52 6 0 0 0 3 0 0 6 3 0 0 0 0 6 19 26 29 23 29 58 81 81 81 77 77 81 74 65 71 61 61 58 65 58 58 65 71 68 71 65 68 65 65 65 58
45 48 48 29 3 0 6 3 0 0 0 6 0 0 10 10 6 13 16 19 19 19 32 61 77 74 71 68 77 71 68 65 68 65 65 58 58 61 68 71 74 74 74 71 71 68 58 61 48
55 55 29 0 0 0 3 0 0 0 0 6 6 13 6 10 10 6 16 19 13 23 29 42 71 74 68 65 65 68 68 71 65 65 61 65 65 61 55 71 71 68 77 65 71 55 45 55 45
55 42 6 0 0 0 0 0 0 3 0 3 13 10 10 13 13 10 10 13 19 23 39 42 71 68 68 68 71 71 71 68 71 61 58 58 58 58 61 52 55 61 68 58 61 58 45 48 45
35 23 3 0 0 3 0 0 6 0 0 3 6 6 13 13 13 6 10 13 16 26 26 29 35 52 65 74 81 71 65 65 65 61 61 65 58 55 52 48 52 55 52 58 48 48 48 42 32
23 3 0 0 0 3 3 0 3 0 0 0 0 10 10 13 10 10 10 13 13 19 26 26 32 35 32 48 71 68 68 61 58 58 61 55 58 58 65 71 61 52 48 48 42 48 52 52 52
10 3 3 0 0 0 3 3 6 3 0 3 6 16 19 13 10 6 6 10 16 23 29 35 29 32 32 23 39 55 77 65 55 52 58 68 58 42 58 48 58 52 48 48 52 52 58 55 52
6 3 3 0 0 0 6 6 3 6 3 3 6 16 13 6 10 10 10 10 13 16 13 23 23 23 23 16 32 48 32 39 52 58 74 71 74 61 45 61 55 61 55 52 61 65 68 61 39
3 3 0 0 3 3 6 6 3 3 10 10 6 13 13 10 10 13 6 3 19 23 23 26 26 23 26 32 39 48 48 55 42 58 61 71 65 58 55 45 61 65 55 45 61 58 52 48 48
0 0 0 0 0 3 3 3 6 10 10 10 16 16 13 13 10 6 10 10 16 23 29 35 23 35 52 45 35 48 42 42 45 61 61 68 61 58 55 65 65 61 55 71 52 68 61 45 42
0 0 0 0 6 3 0 6 6 6 13 13 16 16 13 16 13 10 16 16 23 29 32 39 48 65 71 71 61 45 58 29 52 68 68 71 68 65 68 77 81 61 65 68 74 68 68 58 52
0 0 0 0 0 0 0 0 6 13 13 19 16 16 10 10 6 10 23 26 29 35 39 35 58 61 74 68 71 61 48 58 26 45 42 65 68 65 65 68 77 74 77 71 74 61 68 71 68
0 0 0 0 0 0 0 0 6 6 10 19 13 10 10 10 10 16 26 35 39 48 52 55 58 61 71 65 68 58 52 26 42 58 58 58 65 71 71 71 77 71 77 77 71 61 61 61 61
0 3 0 0 0 0 3 10 13 19 19 26 19 13 13 16 19 19 23 32 45 52 55 68 42 55 68 71 74 61 48 55 58 68 58 55 71 68 74 65 65 71 68 74 77 71 74 68 74
0 0 0 0 0 0 6 10 16 23 23 23 26 19 23 19 19 26 26 35 52 52 58 68 74 65 68 71 77 68 65 71 71 68 71 68 68 65 71 68 65 71 68 74 55 77 77 71 68
0 0 0 0 0 3 6 19 26 19 26 26 19 23 26 26 35 39 29 35 42 55 71 71 74 81 77 77 84 74 71 74 74 71 77 74 65 65 71 71 74 65 65 68 68 71 74 74 71
0 0 0 0 0 0 6 19 23 26 29 35 32 32 42 45 45 48 35 39 42 58 65 84 74 81 84 81 77 74 77 74 74 71 71 71 68 65 77 74 71 65 65 68 65 68 71 71 65
0 0 0 0 0 0 10 16 29 26 29 32 35 39 39 48 48 45 45 42 48 61 74 81 81 81 81 87 90 84 77 74 74 74 74 74 71 68 65 81 77 71 71 65 68 68 65 71 68
0 0 0 0 0 0 0 6 26 26 23 32 29 42 45 52 52 48 48 45 42 55 58 52 81 81 81 81 81 84 77 77 68 71 68 71 71 68 74 71 71 74 68 71 74 68 68 71 68
0 0 0 0 0 0 0 3 19 26 23 32 35 45 42 45 52 55 52 58 52 58 65 74 81 81 77 84 81 71 77 77 77 81 74 77 71 68 74 74 74 74 77 77 74 71 77 68 65
0 0 0 0 0 0 0 0 6 13 26 29 39 42 42 45 45 52 52 61 61 61 65 65 81 84 84 81 81 84 77 77 77 81 81 81 74 71 71 71 68 71 68 65 61 65 65 71 61
0 0 0 0 0 0 0 0 0 6 13 23 32 45 45 48 45 58 65 65 61 65 58 61 81 84 84 84 81 81 81 87 87 84 81 84 77 77 74 71 68 68 68 71 65 65 61 74 68
0 0 0 0 0 0 0 0 3 3 10 16 26 39 39 42 48 52 52 58 61 61 58 65 77 84 84 84 84 84 84 87 90 81 84 84 77 77 77 74 77 68 61 68 68 68 65 58 61
0 0 0 0 0 0 0 3 6 10 13 10 16 26 39 35 45 48 48 48 61 58 68 71 77 81 81 81 84 84 84 81 77 87 84 81 81 77 77 74 74 68 65 58 61 65 65 58 58
0 0 0 0 0 0 0 3 3 6 6 10 13 19 32 39 45 45 48 45 52 58 65 71 77 81 81 81 84 81 77 81 81 77 84 81 87 77 81 71 68 68 68 68 65 65 65 61 61
0 0 0 0 0 0 0 0 6 3 3 3 13 19 29 29 39 42 45 48 48 55 65 65 74 81 81 81 81 81 81 81 77 77 81 81 84 87 81 74 68 68 68 68 71 68 65 58 65
0 0 0 0 0 0 0 0 3 6 3 3 6 13 23 29 39 42 48 52 48 55 52 65 71 71 74 81 81 81 81 81 77 81 77 81 77 84 87 84 77 74 71 68 68 61 61 61 61
0 0 0 0 0 0 0 0 3 3 3 6 10 19 26 35 32 35 48 52 52 52 48 52 61 71 71 71 77 81 81 77 74 77 74 74 74 71 71 77 74 74 68 68 71 65 55 58 61
Height
5891 5891 5892 5892 5892 5893 5893 5892 5891 5890 5889 5889 5888 5887 5886 5886 5887 5888 5885 5883 5884 5883 5883 5882 5883 5883 5883 5883 5883 5883 5883 5884 5884 5885 5886 5886 5887 5887 5888 5889 5889 5890 5891 5892 5893 5894 5894 5895 5895
5895 5895 5894 5893 5894 5895 5895 5894 5893 5893 5892 5891 5890 5889 5889 5888 5888 5887 5885 5885 5885 5885 5884 5884 5884 5884 5884 5884 5884 5884 5885 5885 5886 5886 5887 5888 5888 5889 5889 5890 5891 5892 5892 5893 5894 5895 5895 5896 5896
5898 5897 5896 5897 5898 5898 5898 5897 5896 5895 5894 5893 5893 5892 5891 5890 5889 5888 5888 5887 5887 5886 5886 5885 5885 5885 5885 5885 5886 5886 5886 5886 5887 5888 5888 5889 5890 5890 5891 5892 5892 5893 5894 5895 5895 5896 5896 5896 5896
5900 5899 5900 5902 5900 5900 5900 5900 5899 5898 5897 5896 5895 5894 5893 5892 5891 5891 5890 5889 5889 5888 5888 5887 5887 5887 5887 5887 5887 5887 5887 5887 5888 5889 5889 5890 5891 5892 5892 5893 5894 5894 5895 5896 5896 5897 5897 5897 5897
5901 5901 5904 5904 5903 5904 5903 5902 5901 5900 5899 5898 5897 5896 5895 5894 5893 5892 5892 5891 5890 5890 5889 5889 5888 5888 5888 5888 5888 5888 5888 5888 5889 5890 5890 5891 5892 5893 5893 5894 5895 5895 5896 5897 5897 5898 5898 5898 5898
5904 5905 5909 5907 5907 5906 5905 5904 5903 5902 5901 5900 5899 5898 5897 5896 5895 5894 5894 5893 5892 5891 5891 5890 5890 5889 5889 5889 5889 5889 5889 5889 5890 5890 5891 5892 5893 5893 5894 5895 5896 5896 5897 5898 5898 5899 5899 5899 5899
5908 5909 5911 5910 5910 5909 5908 5907 5906 5905 5903 5902 5901 5900 5899 5897 5897 5896 5895 5894 5894 5893 5892 5892 5891 5890 5890 5890 5890 5890 5890 5890 5891 5892 5892 5893 5894 5895 5895 5896 5897 5897 5898 5898 5899 5899 5900 5900 5900
5912 5913 5913 5913 5912 5911 5911 5909 5908 5907 5906 5905 5903 5902 5901 5900 5899 5898 5897 5896 5895 5895 5894 5893 5893 5892 5891 5891 5891 5891 5891 5892 5892 5892 5893 5894 5895 5896 5896 5897 5897 5898 5899 5899 5900 5900 5901 5901 5901
5915 5917 5916 5915 5915 5914 5913 5912 5910 5909 5907 5906 5905 5904 5903 5901 5900 5899 5898 5897 5896 5896 5895 5895 5894 5893 5893 5893 5892 5892 5892 5893 5893 5893 5894 5895 5895 5896 5897 5897 5898 5899 5899 5900 5901 5901 5902 5901 5902
5917 5917 5918 5918 5917 5916 5915 5914 5912 5911 5909 5908 5907 5905 5904 5903 5902 5901 5900 5898 5897 5897 5896 5896 5895 5894 5894 5894 5893 5893 5893 5893 5894 5894 5895 5895 5896 5897 5897 5898 5899 5900 5900 5901 5901 5902 5902 5903 5903
5920 5920 5920 5920 5919 5918 5917 5915 5914 5913 5912 5910 5908 5907 5905 5904 5903 5902 5901 5900 5899 5898 5897 5897 5896 5895 5895 5894 5894 5894 5894 5894 5894 5895 5895 5896 5897 5897 5898 5898 5899 5900 5901 5901 5902 5902 5903 5903 5903
5923 5923 5922 5921 5921 5920 5918 5917 5916 5915 5914 5912 5910 5909 5907 5906 5904 5903 5902 5901 5900 5899 5898 5898 5897 5896 5895 5894 5894 5894 5894 5894 5895 5895 5896 5896 5897 5898 5898 5899 5900 5900 5901 5902 5902 5903 5903 5903 5904
5925 5925 5924 5923 5922 5921 5920 5919 5918 5916 5915 5913 5912 5910 5908 5907 5906 5904 5903 5902 5902 5901 5900 5899 5898 5897 5896 5895 5895 5895 5895 5895 5895 5895 5896 5897 5898 5898 5899 5899 5900 5900 5901 5902 5902 5903 5903 5903 5904
5926 5926 5926 5925 5924 5923 5921 5920 5919 5917 5916 5914 5913 5911 5910 5908 5907 5906 5905 5904 5903 5902 5901 5900 5899 5898 5897 5896 5895 5895 5895 5895 5895 5896 5896 5897 5898 5898 5899 5899 5900 5900 5901 5901 5902 5902 5903 5903 5903
5927 5927 5927 5927 5926 5925 5923 5921 5920 5918 5916 5915 5913 5912 5910 5909 5908 5907 5906 5905 5904 5902 5901 5901 5900 5899 5898 5897 5896 5896 5896 5896 5896 5896 5897 5898 5898 5898 5899 5899 5900 5900 5900 5901 5901 5902 5902 5903 5903
5928 5929 5928 5928 5926 5925 5925 5922 5921 5918 5917 5916 5914 5913 5911 5910 5908 5907 5906 5905 5904 5903 5902 5901 5900 5900 5899 5898 5897 5897 5897 5897 5897 5897 5898 5898 5898 5898 5899 5899 5899 5899 5899 5900 5901 5901 5901 5902 5902
5930 5930 5930 5929 5928 5926 5926 5923 5921 5919 5918 5916 5915 5913 5912 5910 5909 5908 5907 5906 5905 5904 5903 5902 5901 5900 5899 5898 5898 5898 5897 5897 5897 5898 5898 5898 5899 5899 5899 5899 5899 5899 5899 5899 5900 5900 5900 5901 5901
5931 5931 5931 5930 5928 5927 5926 5924 5922 5920 5919 5917 5915 5914 5912 5911 5909 5908 5907 5906 5905 5904 5903 5902 5901 5900 5899 5899 5898 5898 5898 5898 5898 5898 5898 5898 5898 5899 5899 5899 5899 5899 5899 5899 5899 5899 5899 5899 5900
5930 5930 5931 5930 5928 5927 5925 5923 5922 5920 5919 5917 5916 5914 5912 5911 5910 5908 5907 5906 5905 5904 5903 5902 5901 5900 5899 5899 5899 5898 5898 5898 5898 5898 5898 5898 5898 5898 5899 5899 5898 5898 5898 5898 5898 5898 5898 5899 5899
5929 5930 5930 5930 5928 5926 5924 5923 5921 5919 5919 5917 5915 5914 5912 5910 5909 5908 5907 5905 5904 5904 5903 5902 5901 5900 5899 5899 5899 5899 5898 5898 5898 5898 5898 5898 5898 5898 5898 5898 5898 5898 5898 5898 5897 5897 5897 5897 5897
5928 5929 5929 5928 5926 5924 5923 5921 5919 5919 5918 5917 5915 5914 5912 5910 5908 5907 5906 5905 5904 5903 5902 5901 5900 5900 5899 5899 5898 5898 5898 5898 5898 5898 5898 5898 5897 5897 5897 5897 5897 5897 5897 5897 5896 5896 5896 5895 5895
5926 5927 5926 5925 5925 5924 5924 5921 5919 5917 5917 5916 5914 5913 5911 5910 5908 5907 5906 5904 5903 5902 5901 5901 5900 5899 5899 5898 5898 5898 5898 5897 5897 5897 5897 5897 5896 5896 5896 5896 5896 5896 5895 5895 5895 5895 5894 5894 5893
5923 5924 5923 5922 5923 5923 5922 5921 5919 5916 5915 5914 5913 5912 5911 5909 5908 5906 5905 5903 5902 5901 5900 5900 5899 5898 5898 5898 5897 5897 5897 5897 5896 5896 5896 5895 5895 5895 5894 5894 5894 5894 5894 5893 5893 5893 5892 5892 5891
5921 5921 5921 5921 5922 5922 5921 5920 5918 5916 5914 5912 5911 5911 5909 5908 5906 5905 5903 5902 5901 5900 5899 5898 5898 5897 5897 5896 5896 5895 5895 5895 5895 5894 5894 5894 5893 5893 5893 5892 5892 5892 5891 5891 5891 5890 5890 5889 5889
5919 5920 5920 5920 5920 5920 5919 5918 5916 5914 5912 5910 5909 5908 5907 5906 5904 5903 5901 5900 5899 5898 5897 5896 5896 5895 5895 5894 5894 5894 5893 5892 5892 5892 5892 5892 5891 5891 5890 5890 5890 5889 5889 5889 5888 5888 5887 5887 5886
5916 5917 5919 5918 5918 5917 5917 5915 5914 5910 5909 5907 5906 5905 5904 5903 5902 5900 5898 5897 5896 5895 5894 5894 5893 5893 5892 5892 5892 5891 5890 5890 5889 5889 5889 5889 5889 5888 5888 5888 5887 5887 5886 5886 5885 5885 5884 5883 5883
5913 5914 5915 5915 5914 5914 5912 5911 5910 5907 5905 5903 5902 5902 5901 5899 5898 5897 5896 5895 5893 5892 5891 5891 5890 5890 5889 5889 5888 5888 5887 5887 5886 5886 5886 5886 5886 5885 5885 5884 5884 5884 5883 5882 5882 5881 5880 5880 5879
5909 5910 5911 5911 5910 5909 5909 5907 5905 5903 5901 5900 5899 5898 5896 5896 5895 5894 5892 5891 5890 5889 5888 5888 5887 5887 5886 5885 5884 5884 5883 5883 5883 5883 5882 5882 5882 5882 5881 5881 5880 5880 5879 5878 5878 5877 5877 5876 5875
5906 5906 5906 5906 5907 5907 5906 5906 5901 5899 5898 5897 5896 5894 5893 5892 5890 5889 5888 5887 5886 5885 5884 5884 5883 5883 5882 5881 5880 5880 5879 5879 5879 5878 5878 5878 5878 5877 5877 5877 5876 5875 5874 5874 5873 5873 5872 5872 5871
5901 5901 5902 5903 5902 5901 5901 5903 5897 5894 5892 5891 5890 5889 5888 5887 5886 5885 5884 5882 5882 5881 5880 5879 5878 5878 5877 5876 5876 5875 5874 5874 5874 5874 5873 5873 5873 5872 5872 5871 5871 5871 5870 5870 5869 5868 5867 5867 5866
Wind_Speed
18 18 18 17 17 14 11 9 9 9 9 9 8 7 7 6 6 6 6 7 6 6 5 4 5 5 5 5 4 4 5 5 6 7 6 6 6 7 7 6 6 6 6 7 7 6 5 4 3
17 16 18 18 15 11 10 9 9 9 10 10 9 8 8 7 7 7 7 7 7 6 5 5 5 4 4 4 4 4 5 5 5 6 6 6 6 6 7 6 6 7 7 7 6 5 5 4 3
17 17 18 16 11 10 10 10 10 10 10 10 9 9 9 8 8 8 8 7 7 7 7 6 5 5 4 4 4 4 4 5 5 5 6 6 6 6 6 6 6 7 6 5 5 4 4 4 3
18 19 18 12 9 10 10 10 10 9 9 10 9 9 9 9 9 8 8 8 8 8 7 6 5 5 4 4 4 4 4 4 5 5 6 6 5 5 5 5 6 6 5 5 4 4 4 4 4
17 19 15 11 10 9 9 9 9 9 9 9 9 9 9 9 9 8 8 7 7 8 7 7 5 5 4 4 3 4 4 4 5 5 5 5 4 5 5 5 5 5 4 4 4 4 4 4 4
19 17 10 9 9 8 8 8 8 9 9 9 9 9 9 8 8 8 8 8 7 7 7 7 5 4 3 3 3 3 3 3 4 5 5 4 4 5 5 5 5 5 4 4 4 4 3 3 3
16 12 8 8 7 8 9 9 8 9 10 10 9 9 9 9 8 8 8 8 7 8 7 6 6 5 4 4 3 3 3 3 4 4 4 4 4 5 5 5 4 4 4 3 3 3 2 2 2
13 10 7 8 7 8 8 9 9 10 11 11 11 10 9 8 8 8 8 8 8 8 7 7 6 5 4 3 3 3 3 3 2 3 3 4 4 4 4 4 4 3 3 3 2 2 2 2 2
9 9 7 7 7 7 7 8 10 11 10 11 11 11 10 9 8 8 8 7 8 7 7 6 5 6 5 3 3 2 2 2 1 2 3 3 3 3 4 3 3 3 3 2 2 2 1 2 2
8 8 8 8 7 7 7 8 9 10 11 11 11 11 11 10 8 8 8 7 7 7 7 7 6 6 6 4 4 3 2 1 0 1 2 3 2 2 3 2 2 2 2 2 2 1 1 1 2
7 8 8 7 7 7 8 9 9 9 10 12 11 11 11 11 10 9 9 8 8 8 7 7 7 7 6 6 5 3 2 1 0 1 2 2 1 1 2 2 1 1 2 1 1 1 0 0 1
6 7 6 6 7 7 8 8 9 9 10 11 12 11 11 11 11 11 10 9 9 8 8 8 8 8 8 7 5 4 3 2 0 1 1 2 1 1 1 1 1 2 2 2 2 1 1 1 2
5 6 8 8 8 8 8 8 9 10 10 10 11 11 12 12 12 11 10 9 9 8 8 8 9 9 8 7 5 4 4 3 1 0 1 1 2 1 1 1 2 2 3 3 3 3 2 2 3
5 6 7 8 9 9 9 8 8 10 11 11 11 11 11 11 11 10 10 9 9 7 8 9 9 9 8 7 5 4 4 2 1 1 1 1 1 2 2 2 2 3 3 4 4 4 4 4 4
5 6 7 7 8 9 9 10 10 10 11 11 11 11 11 11 10 9 9 9 8 8 8 9 9 9 8 7 6 5 4 3 2 1 1 1 2 2 2 3 3 4 4 4 5 5 5 5 5
4 6 8 7 7 8 9 10 12 10 11 12 12 11 11 11 11 10 10 10 9 9 9 9 9 9 8 7 7 6 4 3 2 1 1 2 2 3 3 3 4 4 5 5 6 6 6 6 6
3 5 8 8 8 8 10 12 13 12 12 13 13 12 11 10 10 10 11 10 10 10 10 10 10 8 8 7 7 6 5 5 4 3 2 2 2 2 3 3 3 4 5 5 6 6 7 7 7
2 3 5 6 8 8 9 11 12 12 12 12 12 12 11 10 10 10 11 10 10 10 10 9 9 8 8 7 7 7 5 5 4 4 4 3 3 3 4 4 4 3 4 5 5 5 5 6 6
4 3 5 7 9 9 10 10 10 11 13 13 12 12 11 12 11 11 11 11 11 10 10 10 10 9 8 7 7 7 6 5 5 5 5 4 4 4 4 5 4 4 4 4 5 5 5 5 6
5 4 6 7 9 10 11 11 11 11 13 13 13 12 12 12 11 11 11 12 11 10 10 10 10 9 8 7 7 7 6 5 5 5 5 5 5 5 5 5 6 5 5 5 6 5 6 6 7
6 7 9 10 9 9 11 12 13 12 12 12 13 12 12 12 12 11 11 12 11 10 10 11 9 9 9 8 7 7 6 6 6 6 6 5 5 6 6 6 6 6 6 6 6 6 7 7 7
8 10 11 10 9 9 10 13 12 12 12 12 13 12 12 12 12 12 12 12 11 10 10 9 9 9 9 8 8 8 7 7 7 7 7 7 6 6 7 7 7 7 7 7 7 7 8 9 8
10 10 9 8 9 9 10 11 13 13 13 13 14 13 12 13 12 13 13 12 12 11 10 10 10 10 9 9 10 9 8 8 8 8 8 8 7 7 8 8 8 9 9 9 10 10 10 10 10
11 9 8 9 9 11 11 13 14 14 14 15 15 15 13 14 14 13 14 13 13 12 12 11 11 11 11 11 11 11 10 10 9 9 9 9 9 9 9 10 10 11 11 11 11 11 11 12 12
11 9 11 11 11 13 13 14 17 17 16 16 18 16 15 15 14 14 14 14 14 13 13 13 13 13 12 12 12 12 12 12 11 11 10 10 11 10 10 11 11 11 12 12 13 13 13 12 12
13 11 11 13 13 14 14 15 18 18 19 18 17 17 17 17 16 15 14 14 14 14 14 14 14 14 14 14 14 14 14 13 13 13 13 13 12 12 12 13 13 13 14 14 14 15 15 14 14
13 13 13 15 15 16 16 16 18 19 20 19 18 18 18 18 18 17 16 17 16 15 15 15 15 15 15 16 16 15 15 15 15 15 15 15 15 14 14 14 14 15 15 16 16 16 16 16 16
16 15 14 14 17 17 17 17 18 20 21 20 20 20 19 19 19 20 20 20 18 17 16 16 16 17 17 17 17 16 17 17 16 17 17 18 18 17 17 17 17 17 17 16 16 16 16 16 17
17 15 15 16 16 17 18 18 21 21 22 22 21 21 20 21 20 21 21 21 20 20 19 18 18 18 18 18 18 17 18 18 18 18 19 19 19 20 19 19 19 19 19 18 18 17 17 18 18
19 18 18 18 19 18 19 21 22 23 23 23 22 23 22 23 22 21 22 22 21 21 20 19 19 19 18 18 19 19 19 19 20 20 20 21 21 21 21 21 21 20 20 20 20 20 20 20 20
Wind_Direction
91 92 90 83 74 69 70 66 70 73 71 68 65 68 71 71 73 70 64 68 72 73 77 85 90 100 106 112 119 127 128 129 132 136 133 128 122 122 121 119 115 117 123 127 123 127 128 122 126
91 94 87 75 73 72 69 67 69 67 65 62 61 65 68 71 70 67 61 67 72 73 74 77 85 95 106 110 114 124 124 128 137 141 135 131 129 128 126 123 117 119 120 122 125 122 119 116 117
91 89 81 71 72 73 70 65 64 62 61 57 58 65 65 65 65 65 63 65 71 75 73 72 80 85 96 105 111 117 121 127 137 140 136 134 132 132 128 122 121 124 121 118 119 118 118 113 111
86 78 77 77 68 71 65 61 59 57 56 54 56 61 62 62 61 63 64 65 68 70 68 62 63 73 84 98 113 113 120 133 144 144 139 137 135 134 132 125 124 123 120 117 112 116 114 109 100
78 73 72 72 65 61 57 57 55 53 54 54 56 56 56 55 56 59 59 60 65 65 63 57 58 69 74 83 97 101 110 124 139 141 141 143 144 148 146 134 134 127 120 113 108 110 109 120 107
74 68 63 67 62 58 51 53 49 46 46 49 52 50 51 50 50 51 51 49 59 61 56 58 59 55 61 84 87 100 105 110 133 138 134 132 143 153 150 146 140 137 132 118 116 115 104 113 116
75 70 58 54 55 51 43 43 42 42 40 39 41 41 43 44 43 46 46 44 48 47 47 55 60 56 48 65 66 84 97 112 129 127 120 122 128 139 139 145 140 142 145 138 129 122 102 103 117
81 78 65 65 53 50 43 37 37 36 34 34 34 34 36 36 37 41 45 42 41 40 44 45 44 43 41 51 51 70 87 92 114 131 131 132 137 142 140 144 144 142 134 133 127 122 93 102 96
81 73 67 67 52 44 41 37 34 32 30 32 33 31 28 30 31 31 33 36 34 32 33 35 35 32 31 30 30 31 63 78 105 132 146 146 146 148 151 149 149 148 141 139 130 114 99 97 89
48 59 59 51 39 35 31 29 29 30 24 26 25 23 22 23 25 25 22 27 26 26 23 26 30 29 28 22 11 11 18 34 130 141 142 146 146 154 162 162 158 157 156 152 144 130 94 78 71
38 47 51 40 31 28 31 28 22 25 18 19 20 19 19 19 19 19 22 22 20 22 23 26 26 23 21 16 13 18 10 3 88 139 151 146 141 152 170 173 183 199 192 192 189 154 212 322 23
54 46 40 35 30 25 28 29 19 13 9 10 11 12 13 15 14 15 15 15 19 22 25 26 23 21 15 10 18 22 16 8 320 193 186 187 188 188 186 204 230 227 225 234 237 237 261 265 302
59 44 39 32 30 21 17 20 9 2 1 2 2 5 8 9 10 11 10 11 12 17 21 21 18 15 12 10 6 7 14 20 6 281 236 214 209 226 257 272 253 237 237 240 251 261 272 279 286
57 43 30 21 19 11 3 10 10 2 357 356 356 357 1 2 2 3 4 4 360 7 14 14 8 6 8 12 8 359 349 358 360 334 287 243 241 254 269 270 256 250 249 248 259 268 271 275 282
51 26 12 8 7 358 357 1 2 1 356 353 356 357 355 356 357 357 359 0 1 3 5 6 3 4 8 9 6 356 338 340 332 348 321 283 284 289 283 275 263 256 256 261 267 272 272 275 283
34 360 349 354 356 348 343 342 348 355 351 348 351 353 352 352 358 359 357 357 354 355 357 356 355 356 360 2 5 359 346 341 333 339 326 292 293 306 299 289 281 274 265 263 270 276 279 278 283
23 333 328 341 339 345 336 337 336 342 345 345 346 350 352 352 354 354 353 352 352 349 348 346 347 349 349 353 355 357 352 345 333 335 332 311 305 314 313 309 302 289 278 273 274 278 278 276 279
276 297 309 321 322 329 324 326 329 337 338 340 340 342 342 343 343 343 344 343 345 346 344 342 343 341 342 343 345 348 343 344 342 338 337 327 311 309 307 315 312 301 294 292 288 287 283 283 287
244 283 307 314 312 314 313 318 323 331 336 336 339 340 338 334 335 335 334 332 334 336 339 336 335 334 336 338 338 340 337 337 335 330 328 330 321 314 310 320 315 306 304 306 304 292 287 288 290
246 279 292 290 288 299 311 315 319 328 331 334 336 335 339 337 333 331 330 326 325 328 328 329 329 329 326 327 329 334 330 327 328 330 327 322 321 316 309 307 310 312 306 302 301 301 295 293 294
255 267 271 279 289 298 307 311 315 323 323 330 332 332 332 334 333 330 327 324 321 320 321 324 326 327 323 322 322 322 325 320 314 316 316 314 313 311 307 304 300 298 296 298 303 306 306 306 305
258 264 271 280 288 288 298 299 305 315 314 322 325 326 327 328 330 329 327 323 321 319 318 318 319 324 323 319 315 310 312 313 307 302 300 300 297 299 300 302 300 296 292 292 296 300 300 301 303
255 262 273 281 284 284 284 285 291 306 305 306 314 318 321 322 325 324 323 322 319 315 313 311 313 315 315 315 313 308 303 304 305 300 300 299 298 300 301 297 294 295 295 295 295 293 296 298 298
264 271 291 296 288 276 276 283 288 286 297 296 300 306 310 314 316 317 316 317 315 312 308 306 306 305 305 304 306 304 300 299 297 295 294 291 292 297 300 300 296 296 296 297 295 295 295 297 296
263 271 278 280 279 277 280 283 282 280 285 290 298 299 303 308 308 308 311 316 313 309 307 302 303 301 299 298 297 296 294 294 292 290 289 290 294 298 299 299 296 296 295 296 295 295 296 298 296
262 261 268 275 276 279 279 278 283 289 289 290 294 298 299 302 303 305 306 310 310 307 304 300 298 299 296 294 292 292 291 289 287 284 284 287 289 291 293 296 294 292 291 292 294 293 296 298 295
257 258 261 270 276 279 272 274 277 282 286 286 290 293 294 297 299 299 300 301 302 303 301 299 294 294 293 292 291 288 287 286 284 283 282 284 287 289 289 291 291 290 290 291 291 290 293 294 295
257 259 260 263 273 275 281 279 276 278 281 285 287 289 291 293 294 295 295 297 299 299 298 296 296 294 291 290 289 286 283 283 283 282 282 282 282 284 286 287 288 288 289 290 290 289 289 290 291
261 262 262 265 266 272 279 281 282 278 278 281 283 287 292 293 293 294 293 294 295 295 294 293 294 294 293 292 291 288 284 282 283 282 282 282 281 281 282 283 285 286 288 289 289 287 288 289 289
261 261 259 264 267 268 273 277 280 278 278 281 281 282 287 290 292 291 291 291 292 290 290 290 291 292 291 291 290 287 284 282 282 281 280 279 280 279 279 281 282 285 288 288 287 286 287 287 288